TimeCST,TemperatureF,Dew PointF,Humidity,Sea Level PressureIn,VisibilityMPH,Wind Direction,Wind SpeedMPH,Gust SpeedMPH,PrecipitationIn,Events,Conditions,WindDirDegrees,DateUTC
12:53 AM,6.1,1.9,83,30.25,10.0,WNW,8.1,-,N/A,,Clear,290,2013-01-13 06:53:00
1:53 AM,6.1,1.0,80,30.24,10.0,NW,11.5,-,N/A,,Clear,310,2013-01-13 07:53:00
2:53 AM,6.1,1.0,80,30.24,10.0,NW,12.7,-,N/A,,Clear,320,2013-01-13 08:53:00
3:53 AM,6.1,1.0,80,30.24,10.0,NW,12.7,-,N/A,,Clear,320,2013-01-13 09:53:00
4:53 AM,5.0,-0.0,80,30.25,10.0,NW,9.2,-,N/A,,Clear,310,2013-01-13 10:53:00
5:53 AM,5.0,-0.0,80,30.25,10.0,NW,9.2,-,N/A,,Clear,310,2013-01-13 11:53:00
6:53 AM,3.9,-0.9,80,30.28,10.0,NW,10.4,-,N/A,,Clear,310,2013-01-13 12:53:00
7:53 AM,3.9,-2.0,76,30.31,10.0,WNW,9.2,-,N/A,,Clear,300,2013-01-13 13:53:00
8:53 AM,5.0,-0.9,76,30.33,10.0,WNW,10.4,-,N/A,,Clear,300,2013-01-13 14:53:00
9:53 AM,8.1,1.0,73,30.34,10.0,WNW,12.7,-,N/A,,Clear,300,2013-01-13 15:53:00
10:53 AM,10.9,3.0,70,30.35,10.0,WNW,12.7,-,N/A,,Clear,300,2013-01-13 16:53:00
11:53 AM,12.9,3.9,67,30.33,10.0,NW,15.0,-,N/A,,Clear,310,2013-01-13 17:53:00
12:53 PM,15.1,5.0,64,30.30,10.0,NW,12.7,-,N/A,,Clear,310,2013-01-13 18:53:00
1:53 PM,17.1,6.1,62,30.30,10.0,NW,12.7,-,N/A,,Clear,310,2013-01-13 19:53:00
2:53 PM,19.0,6.1,57,30.30,10.0,NW,11.5,-,N/A,,Clear,320,2013-01-13 20:53:00
3:53 PM,19.9,5.0,52,30.32,10.0,NW,11.5,-,N/A,,Clear,310,2013-01-13 21:53:00
4:53 PM,19.0,6.1,57,30.32,10.0,NW,6.9,-,N/A,,Clear,320,2013-01-13 22:53:00
5:53 PM,15.1,6.1,68,30.34,10.0,West,3.5,-,N/A,,Clear,280,2013-01-13 23:53:00
6:53 PM,10.9,5.0,77,30.36,10.0,West,4.6,-,N/A,,Clear,280,2013-01-14 00:53:00
7:53 PM,10.9,5.0,77,30.37,10.0,NW,6.9,-,N/A,,Clear,320,2013-01-14 01:53:00
8:53 PM,8.1,3.0,80,30.38,10.0,WNW,4.6,-,N/A,,Clear,290,2013-01-14 02:53:00
9:53 PM,9.0,3.9,80,30.40,10.0,West,4.6,-,N/A,,Clear,270,2013-01-14 03:53:00
10:53 PM,8.6,3.2,79,30.28,10.0,West,4.6,-,N/A,,Clear,260,2013-01-14 04:53:00
11:53 PM,8.1,3.0,80,30.41,10.0,West,5.8,-,N/A,,Clear,270,2013-01-14 05:53:00